Regional Weather Roundup
Issued by NWS

Home | Current Version | Previous Version | Graphics & Text | Print | Product List | Glossary On
Versions: 1 2 3 4 5 6 7 8 9 10 11 12 13 14 15 16 17 18 19 20 21 22 23 24 25 26 27 28 29 30 31 32 33 34 35 36 37 38 39 40 41 42 43 44 45 46 47 48 49 50
000
ASUS45 KTFX 282310
RWRMT
MONTANA REGIONAL WEATHER ROUNDUP
NATIONAL WEATHER SERVICE GREAT FALLS MT
500 PM MDT THU APR 28 2016

NOTE: "FAIR" INDICATES FEW OR NO CLOUDS BELOW 12000 FEET WITH NO
SIGNIFICANT WEATHER AND/OR OBSTRUCTIONS TO VISIBILITY.

MTZ001>007-043-290000-
WEST OF THE DIVIDE

CITY           SKY/WX    TMP DP  RH WIND       PRES   REMARKS
KALISPELL      CLOUDY    52  28  39 E10       30.03S
MISSOULA       CLOUDY    49  34  56 NE8       30.02R
BUTTE          CLOUDY    36  31  82 S8        29.99S WCI  30
MULLAN PASS    CLOUDY    37  28  70 CALM      29.99R
ANACONDA         N/A     36  32  87 N10       30.00R WCI  28
DEER LODGE       N/A     43  27  52 NE13G18   30.02S
EUREKA           N/A     55  34  44 SE7       30.01R
HAMILTON         N/A     48  28  46 NE13G21   29.97R
LIBBY            N/A     54  28  37 E9G17     30.02R
PLAINS           N/A     53  34  48 NE3       30.01S
$$

MTZ008-052>055-290000-
SOUTHWEST MONTANA

CITY           SKY/WX    TMP DP  RH WIND       PRES   REMARKS
BOZEMAN        CLOUDY    45  27  49 NE9       29.99S
DILLON         CLOUDY    41  29  62 NE18      29.95R
ENNIS          CLOUDY    45  27  49 NW22      29.98S
THREE FORKS      N/A     44  44 100 CALM      30.00S
TWIN BRIDGES     N/A     41  26  55 N22       29.95S
$$

MTZ009-010-012-014-046-048-049-054-290000-
EAST SLOPES AND CENTRAL MONTANA

CITY           SKY/WX    TMP DP  RH WIND       PRES   REMARKS
CUT BANK       CLOUDY    43  33  68 CALM      30.11S
GREAT FALLS    CLOUDY    42  34  73 E14       30.08R
HELENA         CLOUDY    46  30  53 N12       30.02F
CHOTEAU          N/A     41  37  87 NE12      30.10S
$$

MTZ011-013-016-021-045-047-050-051-290000-
NORTH CENTRAL MONTANA

CITY           SKY/WX    TMP DP  RH WIND       PRES   REMARKS
HAVRE          CLOUDY    53  34  48 SE13G21   30.10S
LEWISTOWN      CLOUDY    41  31  67 E13       30.08F
N BAR RANCH    MIX PCPN  34  32  93 NE3       30.11S
CHINOOK          N/A     54  30  40 E12G17    30.11S
$$

MTZ017>020-022>027-061-062-290000-
NORTHEAST MONTANA

CITY           SKY/WX    TMP DP  RH WIND       PRES   REMARKS
GLASGOW        PTSUNNY   54  27  35 SE16      30.12R
JORDAN           N/A     49  30  48 E12       30.10S
SIDNEY         CLOUDY    54  28  37 E12       30.13S
WOLF POINT     CLOUDY    56  27  32 E14       30.12S
POPLAR           N/A     55  25  30 SE10G16   30.13R
$$

MTZ028>42-056>058-290000-
SOUTHCENTRAL AND SOUTHEAST MONTANA

CITY           SKY/WX    TMP DP  RH WIND       PRES   REMARKS
BAKER          CLOUDY    42  33  70 SE15      30.12S
BILLINGS       PTSUNNY   40  33  76 NE6       30.08S
LIVINGSTON     CLOUDY    40  27  59 E22G29    30.02R
MILES CITY     LGT RAIN  44  35  70 E10       30.10S
EKALAKA          N/A     38  33  82 NE9       30.06S WCI  31
FORSYTH          N/A     43  36  75 E6        30.11R
LAUREL           N/A     39  27  62 CALM      30.06S
ROUNDUP          N/A     40  36  86 CALM      30.00S
$$

REGIONAL REPORTS...DAKOTAS

CITY           SKY/WX    TMP DP  RH WIND       PRES   REMARKS
WILLISTON      CLOUDY    58  21  24 E10       30.13S
MINOT          MOSUNNY   59  11  15 NE12      30.14R
DICKINSON      CLOUDY    50  25  37 E9        30.08R
BEACH          CLOUDY    48  30  49 SE8       30.14S
CROSBY           N/A     57  14  18 E10G20    30.17S
TIOGA            N/A     54  10  17 E15       30.19R
WATFORD CITY   PTSUNNY   54  19  26 E9        30.13S
BISMARCK       CLOUDY    54  21  27 NE10      30.09S
GRAND FORKS    PTSUNNY   56  25  30 NE17      30.12R
FARGO          CLOUDY    60  22  23 NE8       30.06R
BUFFALO SD       N/A     39  35  86 NE8       30.04R
RAPID CITY     CLOUDY    39  34  82 NE10      30.08R
$$

REGIONAL REPORTS...WYOMING/IDAHO/WASHINGTON

CITY           SKY/WX    TMP DP  RH WIND       PRES   REMARKS
GILLETTE       CLOUDY    38  30  73 N5        30.04R
SHERIDAN       CLOUDY    38  33  82 W3        30.06S
BUFFALO WY     CLOUDY    36  30  79 N8        30.05R WCI  30
CODY           CLOUDY    39  28  65 N13       30.01S WCI  32
YELLOWSTONE LA   N/A     36  23  59 SE3       29.91R
IDAHO FALLS    CLOUDY    60  26  27 NW16      29.80S
SALMON         CLOUDY    48  28  46 SE8       29.91S
BOISE          SUNNY     67  32  27 NW25G35   29.78F
SPOKANE        PTSUNNY   63  32  31 NE5       29.93F
$$

REGIONAL REPORTS...ALBERTA

CITY           SKY/WX    TMP DP  RH WIND       PRES   REMARKS
EDMONTON       MOSUNNY   59  30  33 S18G24    30.05F
CALGARY        CLOUDY    50  28  43 S22G31    30.08F
LETHBRIDGE     PTSUNNY   50  34  53 SE7       30.11F
MEDICINE HAT   PTSUNNY   57  30  35 E9G20     30.11F
$$

REGIONAL REPORTS...SASKATCHEWAN

CITY           SKY/WX    TMP DP  RH WIND       PRES   REMARKS
SWIFT CURRENT  MOSUNNY   55  21  26 E16G23    30.13F
REGINA         PTSUNNY   59  18  20 E9G20     30.18R
SASKATOON      PTSUNNY   63  21  20 E16       30.20F
$$



USA.gov is the U.S. government's official web portal to all federal, state and local government web resources and services.